{"data":{"norad_id":66795,"intl_designator":"2025-278E","name":"STARLINK-36047","alt_names":[],"object_type":"PAYLOAD","status":"ACTIVE","operator":null,"country":"US","launch_date":"2025-12-01","launch_site_code":"AFETR","launch_vehicle":null,"mission":null,"orbit_class":"UNKNOWN","rcs_meters":null,"size_class":null,"mass_kg":null,"dimensions":null,"purposes":["comms"],"wikipedia_slug":null,"has_3d_model":false,"image_url":null,"decayed_at":null,"tle_current":{"epoch":"2026-05-25T02:22:14.403648Z","epoch_age_seconds":77001,"freshness":"FRESH","line1":"1 66795U 25278E   26145.09877782  .00012287  00000+0  45517-3 0  9997","line2":"2 66795  43.0034  42.9603 0001130 274.4307  85.6415 15.27586446 26897","mean_motion":15.27586446,"eccentricity":0.000113,"inclination_deg":43.0034,"raan_deg":42.9603,"arg_perigee_deg":274.4307,"mean_anomaly_deg":85.6415,"bstar":0.00045517,"rev_number":2689,"period_min":94.266350933569,"perigee_km":482.25448261682,"apogee_km":483.80510631236,"semimajor_km":6861.1667944646,"source":"CELESTRAK","updated_at":"2026-05-25T13:38:21.325985Z"}}}